ESNBA EERU-EETN

Flight info

Callsign ESNBA
Flight time 0h 35m
Altitude 25000
Route XANON DCT SULUN
Aircraft SF50/L-SDGRWY/L

Departure

Time 2026-04-25 21:55
Airport Ruhnu Airfield (EERU)

Arrival

Time 2026-04-25 22:30
Airport Lennart Meri Tallinn Airport (EETN)
Time Latitude Longitude Altitude Speed Heading
2026-04-25 21:51 57.78405 23.26576 14 ft 0 kts 50°
2026-04-25 21:54 57.78407 23.26581 13 ft 5 kts 45°
2026-04-25 21:54 57.78411 23.26565 16 ft 0 kts 229°
2026-04-25 21:55 57.78397 23.26535 13 ft 11 kts 236°
2026-04-25 21:55 57.78423 23.26449 14 ft 27 kts 317°
2026-04-25 21:55 57.78770 23.25938 35 ft 94 kts 323°
2026-04-25 21:55 57.79298 23.25238 740 ft 88 kts 321°
2026-04-25 21:56 57.79844 23.24642 1321 ft 103 kts 339°
2026-04-25 21:56 57.80362 23.24526 1545 ft 123 kts 350°
2026-04-25 21:56 57.81603 23.25393 1728 ft 170 kts 26°
2026-04-25 21:56 57.82623 23.26919 1987 ft 202 kts 28°
2026-04-25 21:57 57.83793 23.28604 2323 ft 224 kts 29°
2026-04-25 21:57 57.85027 23.30394 2988 ft 220 kts 29°
2026-04-25 21:57 57.86248 23.32160 3570 ft 221 kts 29°
2026-04-25 21:57 57.87468 23.33905 4082 ft 224 kts 29°
2026-04-25 21:58 57.88710 23.35695 4589 ft 225 kts 30°
2026-04-25 21:58 57.89974 23.37513 5021 ft 229 kts 30°
2026-04-25 21:58 57.91235 23.39330 5436 ft 232 kts 30°
2026-04-25 21:58 57.92529 23.41198 5844 ft 235 kts 30°
2026-04-25 21:59 57.93842 23.43095 6224 ft 238 kts 30°
2026-04-25 21:59 57.95164 23.45010 6587 ft 240 kts 30°
2026-04-25 21:59 57.96476 23.46911 6870 ft 242 kts 30°
2026-04-25 22:00 57.99169 23.50817 7603 ft 243 kts 30°
2026-04-25 22:00 58.00486 23.52732 7997 ft 240 kts 30°
2026-04-25 22:00 58.01812 23.54656 8409 ft 239 kts 30°
2026-04-25 22:00 58.03136 23.56579 8824 ft 239 kts 30°
2026-04-25 22:01 58.04009 23.57849 9101 ft 239 kts 30°
2026-04-25 22:01 58.05765 23.60408 9649 ft 240 kts 30°
2026-04-25 22:01 58.06643 23.61691 9894 ft 240 kts 29°
2026-04-25 22:01 58.07538 23.62999 10152 ft 240 kts 30°
2026-04-25 22:02 58.09298 23.65569 10669 ft 241 kts 29°
2026-04-25 22:02 58.10627 23.67513 11058 ft 241 kts 31°
2026-04-25 22:02 58.11944 23.69443 11455 ft 241 kts 31°
2026-04-25 22:02 58.13276 23.71397 11862 ft 241 kts 30°
2026-04-25 22:03 58.14596 23.73328 12270 ft 241 kts 31°
2026-04-25 22:03 58.15932 23.75285 12688 ft 242 kts 29°
2026-04-25 22:03 58.17265 23.77243 13110 ft 241 kts 29°
2026-04-25 22:03 58.18577 23.79178 13504 ft 242 kts 31°
2026-04-25 22:04 58.19909 23.81144 13884 ft 242 kts 31°
2026-04-25 22:04 58.21274 23.82895 14260 ft 235 kts 19°
2026-04-25 22:04 58.22790 23.83946 14678 ft 229 kts
2026-04-25 22:04 58.24356 23.84433 15071 ft 227 kts
2026-04-25 22:05 58.25901 23.84896 15462 ft 228 kts
2026-04-25 22:05 58.27476 23.85388 15868 ft 228 kts
2026-04-25 22:05 58.29033 23.85860 16266 ft 228 kts
2026-04-25 22:05 58.30617 23.86335 16553 ft 234 kts
2026-04-25 22:06 58.32272 23.86830 16554 ft 244 kts
2026-04-25 22:06 58.33957 23.87342 16561 ft 251 kts
2026-04-25 22:06 58.35715 23.87879 16561 ft 258 kts
2026-04-25 22:06 58.37486 23.88419 16561 ft 263 kts
2026-04-25 22:07 58.39319 23.88974 16551 ft 268 kts
2026-04-25 22:07 58.40554 23.89348 16551 ft 272 kts
2026-04-25 22:07 58.43097 23.90122 16552 ft 278 kts
2026-04-25 22:07 58.45002 23.90705 16551 ft 280 kts
2026-04-25 22:08 58.46942 23.91297 16552 ft 281 kts
2026-04-25 22:08 58.48865 23.91883 16550 ft 282 kts
2026-04-25 22:08 58.50818 23.92482 16565 ft 284 kts
2026-04-25 22:08 58.52772 23.93082 16534 ft 283 kts
2026-04-25 22:09 58.54702 23.93674 16534 ft 283 kts
2026-04-25 22:09 58.56656 23.94272 16534 ft 283 kts
2026-04-25 22:09 58.58541 23.95235 16530 ft 290 kts 22°
2026-04-25 22:09 58.60182 23.97624 16124 ft 298 kts 37°
2026-04-25 22:10 58.61697 24.00351 15702 ft 296 kts 38°
2026-04-25 22:10 58.63220 24.02997 15300 ft 293 kts 36°
2026-04-25 22:10 58.64756 24.05533 14899 ft 289 kts 35°
2026-04-25 22:10 58.66270 24.08060 14506 ft 287 kts 36°
2026-04-25 22:11 58.67746 24.10575 14121 ft 285 kts 36°
2026-04-25 22:11 58.69226 24.13094 13738 ft 282 kts 36°
2026-04-25 22:11 58.70698 24.15590 13400 ft 278 kts 36°
2026-04-25 22:11 58.72131 24.18026 13125 ft 277 kts 36°
2026-04-25 22:12 58.73579 24.20483 12842 ft 275 kts 36°
2026-04-25 22:12 58.74990 24.22891 12568 ft 273 kts 36°
2026-04-25 22:12 58.76415 24.25321 12319 ft 270 kts 36°
2026-04-25 22:12 58.77348 24.26912 12138 ft 270 kts 36°
2026-04-25 22:13 58.79221 24.30104 11786 ft 270 kts 36°
2026-04-25 22:13 58.80624 24.32510 11506 ft 267 kts 36°
2026-04-25 22:13 58.82002 24.34867 11242 ft 266 kts 36°
2026-04-25 22:13 58.83395 24.37252 10986 ft 266 kts 36°
2026-04-25 22:14 58.84767 24.39610 10732 ft 266 kts 36°
2026-04-25 22:14 58.86148 24.41987 10477 ft 263 kts 36°
2026-04-25 22:14 58.87496 24.44304 10226 ft 261 kts 36°
2026-04-25 22:14 58.88852 24.46640 9963 ft 259 kts 36°
2026-04-25 22:15 58.90198 24.48960 9723 ft 258 kts 36°
2026-04-25 22:15 58.91526 24.51252 9484 ft 257 kts 36°
2026-04-25 22:15 58.92871 24.53573 9230 ft 257 kts 36°
2026-04-25 22:16 58.95525 24.58166 8710 ft 254 kts 36°
2026-04-25 22:16 58.96839 24.60441 8454 ft 254 kts 36°
2026-04-25 22:16 58.98162 24.62736 8203 ft 253 kts 36°
2026-04-25 22:16 58.99465 24.65000 7955 ft 252 kts 36°
2026-04-25 22:17 59.00774 24.67276 7703 ft 251 kts 36°
2026-04-25 22:17 59.02067 24.69528 7460 ft 251 kts 36°
2026-04-25 22:17 59.03366 24.71792 7216 ft 250 kts 36°
2026-04-25 22:17 59.04646 24.74023 6980 ft 249 kts 36°
2026-04-25 22:18 59.05945 24.76292 6744 ft 249 kts 36°
2026-04-25 22:18 59.07220 24.78519 6501 ft 247 kts 37°
2026-04-25 22:18 59.08503 24.80765 6275 ft 247 kts 36°
2026-04-25 22:18 59.09770 24.82982 6054 ft 247 kts 37°
2026-04-25 22:19 59.11044 24.85216 5836 ft 245 kts 36°
2026-04-25 22:19 59.12295 24.87411 5606 ft 242 kts 36°
2026-04-25 22:19 59.13539 24.89603 5370 ft 239 kts 36°
2026-04-25 22:19 59.14769 24.91767 5138 ft 237 kts 36°
2026-04-25 22:20 59.15984 24.93908 4996 ft 231 kts 36°
2026-04-25 22:20 59.17171 24.95993 4986 ft 231 kts 36°
2026-04-25 22:20 59.18371 24.98109 4986 ft 232 kts 36°
2026-04-25 22:20 59.19564 25.00217 4990 ft 223 kts 36°
2026-04-25 22:21 59.20674 25.02189 4989 ft 215 kts 36°
2026-04-25 22:21 59.21777 25.04136 4983 ft 213 kts 35°
2026-04-25 22:21 59.22884 25.06064 4987 ft 213 kts 36°
2026-04-25 22:21 59.23983 25.08025 4987 ft 214 kts 36°
2026-04-25 22:22 59.25065 25.09963 4988 ft 211 kts 36°
2026-04-25 22:22 59.26150 25.11895 4982 ft 211 kts 35°
2026-04-25 22:22 59.27245 25.13830 4983 ft 211 kts 36°
2026-04-25 22:22 59.28327 25.15757 4982 ft 211 kts 36°
2026-04-25 22:23 59.29419 25.17698 4982 ft 213 kts 36°
2026-04-25 22:23 59.30504 25.19631 4979 ft 212 kts 36°
2026-04-25 22:23 59.31611 25.21516 4977 ft 209 kts 30°
2026-04-25 22:23 59.32877 25.22878 4981 ft 205 kts 18°
2026-04-25 22:24 59.34229 25.23646 4979 ft 201 kts
2026-04-25 22:24 59.35579 25.23829 4978 ft 194 kts 358°
2026-04-25 22:24 59.36949 25.23843 4813 ft 197 kts 359°
2026-04-25 22:24 59.38268 25.23683 4417 ft 180 kts 348°
2026-04-25 22:25 59.39364 25.22769 4010 ft 165 kts 334°
2026-04-25 22:25 59.40225 25.21352 3602 ft 163 kts 319°
2026-04-25 22:25 59.40829 25.19528 3217 ft 151 kts 305°
2026-04-25 22:25 59.41145 25.17503 2820 ft 160 kts 292°
2026-04-25 22:26 59.41183 25.15322 2419 ft 157 kts 282°
2026-04-25 22:26 59.41191 25.13249 2195 ft 146 kts 284°
2026-04-25 22:26 59.41219 25.11206 2213 ft 148 kts 284°
2026-04-25 22:26 59.41241 25.09151 2216 ft 150 kts 284°
2026-04-25 22:27 59.41260 25.07125 2220 ft 151 kts 283°
2026-04-25 22:27 59.41267 25.05047 2122 ft 149 kts 283°
2026-04-25 22:27 59.41256 25.03167 1931 ft 126 kts 284°
2026-04-25 22:27 59.41250 25.01615 1767 ft 104 kts 285°
2026-04-25 22:28 59.41267 25.00205 1625 ft 103 kts 285°
2026-04-25 22:28 59.41283 24.98755 1479 ft 106 kts 284°
2026-04-25 22:28 59.41280 24.97305 1325 ft 107 kts 283°
2026-04-25 22:28 59.41295 24.95831 1160 ft 110 kts 282°
2026-04-25 22:29 59.41297 24.94322 1038 ft 113 kts 279°
2026-04-25 22:29 59.41297 24.92740 833 ft 120 kts 278°
2026-04-25 22:29 59.41292 24.91099 664 ft 119 kts 280°
2026-04-25 22:30 59.41312 24.87857 322 ft 119 kts 279°
2026-04-25 22:30 59.41313 24.86393 172 ft 91 kts 280°
2026-04-25 22:30 59.41325 24.85388 159 ft 63 kts 271°
2026-04-25 22:30 59.41325 24.84876 156 ft 49 kts 283°
2026-04-25 22:31 59.41318 24.84241 155 ft 30 kts 269°
2026-04-25 22:31 59.41324 24.83828 158 ft 30 kts 272°
2026-04-25 22:31 59.41327 24.83405 158 ft 33 kts 269°
2026-04-25 22:31 59.41327 24.82929 155 ft 37 kts 271°
2026-04-25 22:32 59.41329 24.82407 154 ft 39 kts 270°
2026-04-25 22:32 59.41329 24.81869 159 ft 40 kts 275°
2026-04-25 22:32 59.41329 24.81398 157 ft 27 kts 272°
2026-04-25 22:32 59.41362 24.81199 155 ft 11 kts 339°
2026-04-25 22:33 59.41433 24.81179 156 ft 10 kts
2026-04-25 22:33 59.41474 24.81179 156 ft 7 kts 360°
2026-04-25 22:33 59.41567 24.81182 156 ft 17 kts 358°
2026-04-25 22:33 59.41676 24.81181 156 ft 14 kts 358°
2026-04-25 22:34 59.41747 24.81211 156 ft 8 kts 63°
2026-04-25 22:34 59.41751 24.81287 156 ft 5 kts 88°
2026-04-25 22:34 59.41751 24.81327 156 ft 1 kts 92°
2026-04-25 22:34 59.41751 24.81348 156 ft 1 kts 94°
2026-04-25 22:35 59.41741 24.81391 156 ft 7 kts 140°
2026-04-25 22:35 59.41707 24.81400 156 ft 3 kts 183°
2026-04-25 22:35 59.41682 24.81403 156 ft 6 kts 207°
2026-04-25 22:35 59.41678 24.81393 156 ft 1 kts 269°
2026-04-25 22:36 59.41678 24.81373 156 ft 4 kts 271°
2026-04-25 22:36 59.41678 24.81329 156 ft 2 kts 272°
2026-04-25 22:36 59.41678 24.81322 156 ft 0 kts 272°